CAPE
0 0 0 0 0 0 0 0 0 0 0 0 0 0 0 0 0 0 0 0 0 0 0 1113 1002 1323 1333 937 795 737 629 927 820 864 827 1004 552 6 0 0 0 0 0 0
0 0 0 0 0 0 0 0 0 0 0 0 0 0 0 0 0 0 0 0 0 0 0 237 1371 1186 943 1205 970 863 780 1193 978 982 1039 931 343 0 0 0 0 0 0 0
0 0 0 0 0 0 0 0 0 0 0 0 0 0 0 0 0 0 0 0 0 0 0 36 1391 1366 1671 1239 1283 1076 1107 1424 1247 1143 1276 1243 454 3 0 0 0 0 0 0
0 0 0 0 0 0 0 0 0 0 0 0 0 0 0 0 0 0 0 0 0 0 0 236 746 1750 1548 536 560 1310 1278 1592 1406 1710 1349 1054 542 73 0 0 0 0 0 0
0 0 0 0 0 0 0 0 0 0 0 0 0 0 0 0 0 0 0 0 0 0 0 0 822 2081 2104 1101 1238 1176 1065 1435 1424 1618 1598 1511 861 335 29 0 0 0 0 0
0 0 0 0 0 0 0 0 0 0 0 0 0 0 0 0 0 0 0 0 0 0 0 0 1 1628 2529 2108 1880 1940 1882 1118 923 1098 1538 1692 1276 485 128 5 0 0 0 0
0 0 0 0 0 0 0 0 0 0 0 0 0 0 0 0 0 15 6 0 0 0 0 0 0 2 1150 2516 2234 2227 2025 1012 864 749 1146 1481 1199 890 654 108 0 0 0 0
0 11 29 0 0 0 3 3 7 6 8 2 5 1 0 1 86 14 0 0 0 0 0 0 0 0 15 239 1905 2530 2528 1930 796 128 559 763 170 1140 1336 128 5 0 0 0
0 0 25 0 0 0 0 11 36 45 20 24 10 7 1 115 115 0 0 0 0 0 0 0 25 36 16 25 497 2103 2411 2521 972 769 1061 155 3 472 1568 294 148 0 0 0
0 0 0 22 0 0 0 3 77 58 55 57 44 24 13 75 71 14 0 1 0 0 0 0 67 176 150 74 100 1532 1748 2933 2690 1944 1830 1737 1145 1795 2014 658 200 10 0 0
0 0 0 0 0 0 6 34 41 63 83 31 11 14 176 240 211 104 31 0 0 0 23 23 66 266 291 222 54 175 1068 1421 2014 2519 2332 2142 2007 1934 1871 738 137 32 27 75
0 0 0 0 0 0 0 0 46 43 21 56 68 107 92 161 238 94 0 0 0 0 10 129 84 117 265 455 374 38 26 1234 1216 1587 2471 1997 1860 1961 865 291 140 32 0 161
0 0 0 0 0 0 0 0 0 15 36 26 51 83 0 0 0 0 0 0 0 0 0 123 157 108 169 227 492 431 36 45 1196 1185 1423 1770 1851 1470 608 16 37 0 0 66
0 0 0 0 0 0 0 7 23 12 10 3 1 0 2 0 0 0 0 0 0 0 0 9 148 137 121 162 199 432 431 148 672 1201 1018 1522 1506 699 295 31 39 0 0 0
0 10 11 7 8 0 0 0 0 0 0 0 0 0 0 0 0 0 0 0 0 0 0 0 0 132 193 164 177 221 473 582 971 1307 1067 1117 1105 454 160 283 0 0 0 17
20 23 30 10 7 1 0 0 0 0 0 0 0 0 0 0 0 0 0 0 0 0 0 0 0 0 145 176 188 284 466 771 586 568 1054 1129 959 541 266 370 2 135 104 115
40 48 20 16 8 7 13 0 0 0 0 0 0 0 0 0 0 0 0 0 0 0 0 0 0 0 45 89 152 275 759 853 763 596 673 784 718 578 293 240 233 203 234 248
40 42 29 17 32 19 5 2 3 0 0 0 0 0 0 0 0 0 0 0 0 0 0 0 0 0 11 33 40 138 191 623 777 462 409 260 509 399 337 204 226 232 295 310
22 18 8 13 18 17 22 22 28 53 6 0 2 0 0 0 3 0 0 0 0 0 0 0 0 0 0 2 14 46 85 190 308 258 186 194 216 483 541 300 248 269 352 358
0 11 17 8 7 13 15 3 5 0 0 18 31 17 2 8 8 0 19 9 0 0 0 0 0 0 0 1 46 36 82 68 189 121 31 23 73 266 320 488 267 85 438 359
13 8 0 2 2 1 0 0 18 8 16 51 36 33 22 15 24 22 2 6 10 7 1 0 0 0 0 28 79 18 43 19 69 181 98 0 0 463 295 394 458 175 430 353
17 5 22 19 6 6 1 1 18 21 13 16 26 33 43 24 16 13 14 21 16 13 9 4 0 1 14 38 121 269 75 0 40 75 13 2 0 1 175 356 467 310 412 462
2 4 8 20 6 0 0 0 0 0 4 2 2 2 12 5 16 30 21 14 29 29 22 11 3 3 8 39 98 220 158 5 1 34 1 2 0 0 0 0 0 151 405 327
4 5 9 14 0 0 2 1 7 9 14 18 11 12 16 12 14 20 22 13 30 27 30 23 18 7 19 27 79 15 207 105 36 26 1 0 0 0 0 0 0 0 0 0
3 5 4 6 10 0 0 0 3 4 5 5 5 24 18 5 23 10 25 20 23 28 37 35 23 19 25 26 84 132 270 182 134 40 8 2 4 0 0 0 0 0 0 0
4 1 0 0 0 2 1 1 1 2 1 3 3 3 4 8 1 9 27 13 22 33 31 40 42 42 21 33 6 78 197 253 109 56 31 5 2 0 2 0 0 0 0 0
CIN
-0 -0 -0 -0 -0 -0 -0 -0 -0 -0 -0 -0 -0 -0 -0 -0 -0 -0 -0 -0 -0 -0 -0 -39 -14 -33 -34 -83 -126 -194 -235 -224 -217 -212 -143 -59 -105 -303 -0 -0 -0 -0 -0 -0
-0 -0 -0 -0 -0 -0 -0 -0 -0 -0 -0 -0 -0 -0 -0 -0 -0 -0 -0 -0 -0 -0 -0 -2 -12 -22 -25 -51 -72 -142 -161 -167 -226 -204 -128 -64 -103 -0 -0 -0 -0 -0 -0 -0
-0 -0 -0 -0 -0 -0 -0 -0 -0 -0 -0 -0 -0 -0 -0 -0 -0 -0 -0 -0 -0 -0 -0 -13 -5 -33 -87 -85 -57 -145 -111 -117 -154 -143 -91 -38 -70 -99 -0 -0 -0 -0 -0 -0
-0 -0 -0 -0 -0 -0 -0 -0 -0 -0 -0 -0 -0 -0 -0 -0 -0 -0 -0 -0 -0 -0 -0 -18 -17 -18 -59 -132 -119 -98 -27 -132 -122 -39 -84 -102 -122 -195 -0 -0 -0 -0 -0 -0
-0 -0 -0 -0 -0 -0 -0 -0 -0 -0 -0 -0 -0 -0 -0 -0 -0 -0 -0 -0 -0 -0 -0 -0 -16 -18 -59 -104 -72 -71 -122 -123 -57 -38 -61 -102 -74 -102 -213 -0 -0 -0 -0 -0
-0 -0 -0 -0 -0 -0 -0 -0 -0 -0 -0 -0 -0 -0 -0 -0 -0 -0 -0 -0 -0 -0 -0 -0 -2 -20 -55 -50 -57 -15 -11 -175 -207 -20 -43 -7 -38 -73 -174 -145 -0 -0 -0 -0
-0 -0 -0 -0 -0 -0 -0 -0 -0 -1 -0 -0 -0 -0 -0 -0 -0 -20 -16 -0 -0 -0 -0 -0 -0 -2 -9 -12 -3 -2 -36 -216 -179 -91 -24 -77 -68 -45 -56 -213 -0 -0 -0 -0
-0 -2 -8 -10 -0 -0 -4 -8 -8 -8 -9 -6 -7 -4 -0 -11 -22 -45 -0 -0 -0 -0 -0 -0 -0 -0 -64 -4 -5 -2 -1 -14 -164 -187 -101 -29 -168 -82 -98 -316 -285 -0 -0 -0
-0 -0 -9 -0 -3 -0 -0 -9 -6 -16 -11 -11 -10 -29 -46 -24 -50 -0 -0 -0 -0 -0 -0 -0 -105 -126 -87 -62 -3 -4 -3 -6 -129 -197 -157 -225 -49 -210 -44 -350 -226 -34 -0 -0
-0 -0 -0 -9 -0 -0 -0 -1 -5 -7 -11 -6 -6 -12 -14 -9 -7 -51 -4 -22 -0 -0 -0 -0 -64 -88 -137 -117 -83 -5 -2 -7 -10 -73 -33 -19 -121 -21 -14 -211 -283 -317 -0 -0
-0 -0 -0 -0 -0 -0 -9 -8 -8 -7 -10 -28 -17 -9 -77 -21 -14 -8 -27 -0 -0 -0 -75 -53 -50 -38 -82 -80 -87 -73 -4 -2 -2 -8 -10 -8 -5 -24 -22 -168 -353 -250 -261 -233
-0 -0 -0 -0 -0 -0 -0 -0 -8 -20 -10 -9 -6 -6 -44 -55 -35 -29 -0 -0 -0 -0 -135 -56 -52 -63 -103 -97 -97 -127 -139 -1 -33 -5 -2 -49 -44 -1 -129 -238 -272 -185 -0 -81
-0 -0 -0 -0 -0 -0 -0 -0 -0 -6 -9 -5 -6 -12 -0 -0 -0 -0 -0 -0 -0 -0 -0 -72 -56 -71 -109 -160 -155 -140 -100 -96 -4 -11 -37 -61 -35 -54 -157 -434 -375 -0 -0 -81
-0 -0 -0 -0 -0 -0 -0 -9 -6 -6 -7 -7 -10 -0 -38 -11 -7 -0 -0 -0 -0 -0 -0 -64 -68 -79 -107 -151 -210 -197 -151 -73 -5 -8 -60 -42 -71 -186 -284 -400 -384 -0 -0 -0
-0 -4 -4 -7 -9 -0 -0 -0 -0 -0 -0 -0 -0 -0 -0 -0 -0 -0 -0 -0 -0 -0 -0 -0 -0 -84 -84 -120 -162 -207 -184 -141 -22 -4 -21 -45 -144 -235 -296 -182 -0 -0 -0 -294
-5 -8 -3 -5 -8 -8 -0 -0 -0 -0 -0 -0 -0 -0 -0 -0 -0 -0 -0 -0 -0 -0 -0 -0 -0 -0 -84 -89 -119 -145 -136 -103 -130 -43 -3 -10 -99 -175 -232 -133 -28 -200 -217 -274
-5 -6 -7 -3 -12 -20 -6 -0 -0 -0 -0 -0 -0 -0 -0 -0 -0 -0 -0 -0 -0 -0 -0 -0 -0 -0 -128 -109 -88 -74 -31 -51 -97 -68 -16 -7 -44 -129 -180 -180 -149 -165 -110 -148
-3 -2 -3 -10 -11 -3 -4 -21 -3 -3 -0 -0 -4 -0 -0 -0 -0 -0 -0 -0 -0 -0 -0 -0 -0 -0 -13 -111 -107 -99 -98 -41 -33 -128 -143 -156 -53 -129 -128 -156 -172 -157 -47 -76
-2 -2 -5 -5 -3 -5 -5 -4 -3 -3 -8 -0 -6 -0 -0 -0 -3 -0 -0 -0 -0 -0 -0 -0 -0 -0 -2 -4 -2 -110 -69 -75 -91 -145 -184 -179 -134 -52 -91 -137 -131 -115 -10 -27
-0 -4 -2 -4 -4 -1 -5 -8 -6 -0 -0 -4 -4 -4 -0 -5 -5 -0 -15 -26 -0 -0 -0 -0 -0 -0 -0 -0 -52 -66 -42 -70 -65 -156 -244 -229 -175 -78 -69 -80 -135 -216 -10 -18
-11 -8 -0 -1 -1 -4 -0 -0 -4 -6 -1 -19 -5 -5 -5 -4 -3 -13 -15 -3 -3 -3 -0 -0 -0 -0 -0 -4 -23 -20 -29 -67 -80 -46 -132 -0 -0 -12 -34 -25 -61 -146 -8 -12
-4 -6 -2 -4 -3 -1 -6 -11 -4 -34 -12 -13 -17 -4 -3 -14 -4 -6 -7 -5 -4 -2 -3 -2 -0 -0 -2 -5 -9 -1 -7 -0 -69 -40 -92 -0 -0 -0 -42 -23 -9 -34 -9 -5
-0 -3 -2 -3 -4 -0 -0 -0 -0 -0 -3 -2 -2 -29 -5 -9 -7 -3 -4 -2 -4 -4 -3 -5 -3 -2 -1 -1 -4 -2 -1 -9 -0 -5 -0 -0 -0 -0 -0 -0 -0 -81 -7 -16
-5 -2 -1 -0 -0 -0 -2 -1 -1 -1 -1 -2 -2 -4 -3 -4 -4 -5 -4 -3 -2 -3 -4 -4 -5 -2 -2 -1 -3 -35 -1 -9 -1 -7 -0 -0 -0 -0 -0 -0 -0 -0 -0 -0
-2 -2 -0 -0 -1 -0 -0 -0 -0 -0 -0 -0 -0 -1 -0 -2 -1 -2 -2 -2 -1 -2 -2 -3 -3 -4 -2 -2 -7 -8 -2 -1 -0 -0 -7 -0 -0 -0 -0 -0 -0 -0 -0 -0
-3 -0 -0 -0 -0 -0 -0 -0 -0 -0 -0 -0 -0 -0 -0 -1 -1 -0 -2 -9 -4 -3 -4 -4 -5 -2 -4 -2 -2 -5 -3 -3 -7 -6 -2 -16 -0 -0 -0 -0 -0 -0 -0 -0
Wind_Speed
3 6 8 12 14 31 38 39 39 32 31 33 37 38 40 35 38 35 37 37 41 30 48 17 26 27 23 27 25 22 16 15 13 11 7 7 7 5 6 6 5 4 4 5
4 6 12 18 19 28 30 36 41 37 36 34 39 42 40 40 38 38 38 39 37 36 31 31 20 20 28 23 24 22 24 18 17 12 10 7 6 5 5 6 6 6 5 5
7 5 9 13 20 19 27 31 36 38 38 33 40 48 44 42 43 41 39 41 40 40 33 23 24 22 21 18 21 24 28 22 20 15 13 10 7 5 4 6 6 8 7 5
9 9 14 19 19 22 23 26 29 36 37 42 32 49 45 40 43 44 41 40 41 39 39 23 24 27 25 27 21 27 34 27 25 21 17 14 12 10 7 5 6 7 8 8
11 15 14 19 21 22 26 30 32 28 34 40 41 43 46 34 37 34 31 35 37 35 34 33 20 21 21 20 22 28 28 26 27 27 23 18 17 15 11 8 5 5 8 10
18 20 22 22 22 21 25 29 31 34 38 40 42 42 49 40 35 37 27 31 31 31 32 34 29 16 18 21 23 24 25 21 29 39 25 19 19 17 15 13 10 9 9 11
19 18 19 18 23 27 25 24 32 35 33 45 35 41 43 35 38 20 18 21 22 25 27 28 29 29 18 18 22 23 25 27 24 28 26 25 22 23 22 18 14 10 8 9
24 20 16 14 18 24 24 25 31 38 40 46 37 36 41 31 17 19 22 22 23 24 24 26 29 29 26 21 22 23 22 24 26 25 28 25 21 25 21 18 14 11 10 8
30 25 24 20 22 23 29 37 32 41 51 53 51 45 36 16 18 22 22 25 25 26 26 27 27 31 31 28 22 28 26 27 25 26 26 26 17 21 22 16 15 13 12 10
25 31 34 24 25 30 33 35 40 38 47 51 48 45 44 22 19 21 21 21 22 24 24 25 25 25 28 31 29 26 26 21 25 26 26 26 23 21 20 18 18 15 14 13
31 30 38 38 33 38 37 36 38 42 44 42 51 46 28 24 12 15 14 19 20 22 22 23 24 24 25 24 27 30 27 28 25 22 24 26 26 24 23 21 20 15 15 17
29 30 38 40 34 30 34 38 39 37 46 51 51 40 19 19 15 17 15 19 21 22 22 23 24 23 24 25 26 28 32 26 25 23 24 24 27 25 25 24 21 18 14 18
26 28 37 38 32 30 36 39 38 41 43 45 44 41 17 22 20 21 23 23 24 24 23 23 24 24 24 26 27 28 28 31 24 23 25 25 26 26 24 24 22 19 14 22
25 30 33 39 37 29 32 34 33 36 46 52 51 56 50 35 31 31 27 29 28 25 25 24 24 25 25 25 27 28 30 29 26 26 27 25 25 23 23 22 22 24 23 22
21 30 31 32 33 35 36 36 35 36 39 47 49 50 44 40 32 35 36 33 31 28 26 27 28 28 27 27 28 28 29 29 24 25 27 28 22 22 24 28 26 26 26 23
19 25 29 31 31 32 37 37 38 40 40 43 44 48 46 44 33 39 34 30 29 32 32 32 30 30 29 28 29 30 27 27 27 28 29 24 22 24 25 27 27 27 25 25
20 21 27 32 31 33 33 34 36 38 38 38 43 41 39 38 35 37 37 35 33 32 33 35 34 31 28 30 28 28 27 27 27 28 27 24 22 25 27 26 26 28 27 26
8 8 20 33 32 33 35 31 26 32 34 34 37 39 38 39 39 38 36 37 36 36 36 35 34 33 31 29 29 29 28 26 26 28 29 28 29 27 27 28 27 28 28 27
12 12 13 15 14 19 32 30 32 35 38 33 37 39 38 35 35 39 39 35 32 30 33 34 35 36 35 36 33 31 29 26 27 27 27 28 29 27 26 27 29 26 29 28
11 13 14 14 13 13 12 29 25 28 40 33 34 38 41 37 36 28 25 26 28 31 32 34 35 37 37 36 32 32 29 27 26 25 25 26 28 29 30 26 26 26 26 25
11 12 13 12 13 13 23 26 34 8 35 36 32 29 28 29 32 33 32 33 32 33 32 33 35 35 35 33 33 30 30 29 27 25 24 23 24 26 26 26 25 25 26 23
13 11 12 10 10 10 27 30 10 33 41 40 39 35 36 37 36 35 36 34 34 33 33 32 34 34 34 32 31 33 30 28 26 25 23 21 20 21 19 20 22 25 26 25
6 7 7 5 7 23 28 19 20 16 27 49 47 48 46 42 41 41 39 40 37 37 35 33 33 34 33 33 30 31 28 25 25 22 21 20 17 16 16 15 16 19 23 22
6 6 4 9 5 9 13 17 17 19 22 23 49 51 49 52 47 44 44 43 41 40 38 35 33 33 33 31 32 30 30 24 24 24 22 19 17 14 14 12 12 14 13 14
8 5 2 12 14 20 12 14 15 15 16 20 36 44 42 43 45 45 42 37 33 35 34 31 33 31 33 31 32 28 28 25 22 22 22 20 21 20 16 13 13 17 17 18
13 17 14 11 13 12 13 13 15 17 15 13 18 41 44 45 45 38 31 29 32 28 28 29 29 31 31 31 31 25 30 28 26 20 21 20 19 17 19 20 19 14 16 18
Wind_Direction
333 305 275 287 282 279 275 276 275 278 272 272 269 268 265 267 263 263 260 260 258 258 250 238 244 246 247 248 236 232 220 206 207 216 217 241 259 268 288 296 302 289 301 314
308 282 302 296 295 286 282 278 273 278 273 275 270 267 269 266 265 264 264 260 260 261 257 251 256 240 235 244 240 236 238 224 219 220 231 237 253 263 280 287 285 278 283 299
267 275 313 304 296 292 284 281 277 276 274 275 271 266 267 266 264 265 265 261 261 259 261 243 243 240 226 222 247 239 240 234 230 226 233 245 255 268 276 288 275 270 270 279
269 259 289 294 294 291 286 286 283 277 275 268 273 265 266 268 264 263 263 261 260 260 261 249 248 242 240 244 236 245 241 239 237 237 233 235 240 247 249 273 278 261 262 269
263 287 274 290 289 289 287 285 281 282 277 274 270 270 264 272 266 267 265 264 262 263 261 260 238 239 240 238 239 232 223 239 243 239 241 237 244 255 256 259 265 267 261 262
278 291 289 297 292 288 289 285 282 280 277 272 268 268 262 265 269 269 268 269 269 267 262 258 261 226 236 239 230 222 231 217 241 244 234 226 242 252 258 257 254 263 259 258
287 277 276 278 284 285 284 282 280 276 272 269 275 269 266 273 270 281 274 274 280 277 270 269 271 261 233 225 230 229 235 242 240 246 246 239 242 254 257 255 255 249 255 248
298 294 286 273 272 279 273 271 273 275 274 272 274 270 270 273 272 278 272 281 286 283 281 276 272 275 275 252 243 235 236 236 232 227 222 245 249 261 241 236 243 234 247 241
301 288 289 291 293 290 282 272 280 275 270 270 265 267 279 268 272 271 275 277 281 283 282 280 278 272 272 277 250 251 249 238 240 238 243 236 228 218 219 229 228 231 251 248
305 296 284 298 293 287 281 280 279 271 270 268 268 269 268 261 260 269 270 274 281 285 284 284 283 281 275 270 273 256 253 236 242 242 241 230 229 230 226 230 223 226 236 246
301 295 288 286 286 288 280 275 270 273 268 271 267 266 286 283 260 264 277 284 285 286 290 291 290 289 283 280 272 268 258 257 252 230 235 240 242 234 235 232 226 240 239 251
307 300 292 286 286 292 285 277 278 272 266 264 267 272 296 285 268 276 297 297 293 289 295 293 296 296 289 284 280 276 266 260 259 251 251 247 246 240 236 235 239 247 253 255
319 303 298 292 286 279 283 276 274 271 271 264 264 258 296 282 277 280 284 293 296 292 296 296 295 298 296 290 285 281 277 267 260 256 256 256 252 243 237 232 233 233 239 240
315 302 294 289 288 301 291 287 276 272 266 264 261 260 262 273 284 291 293 286 288 291 291 294 295 297 298 297 293 287 280 276 264 261 261 259 257 245 237 233 232 221 205 230
313 304 301 296 294 290 286 282 282 276 273 266 266 265 267 271 276 279 287 283 281 285 290 295 292 293 296 298 297 295 285 282 282 266 266 264 253 248 244 245 237 224 227 219
327 309 306 298 296 291 285 281 280 277 275 273 271 267 267 271 278 272 281 287 285 281 284 287 291 290 292 296 299 296 292 285 284 278 270 265 254 253 249 246 236 229 222 212
321 317 309 301 298 296 290 287 281 276 274 273 269 270 273 275 274 275 277 282 287 288 285 281 282 287 291 288 299 300 298 291 285 282 278 272 262 258 255 249 241 230 226 223
210 217 269 293 293 292 269 285 294 284 280 278 274 270 275 276 280 284 286 285 283 284 284 282 280 282 286 288 290 297 302 296 290 284 283 284 267 260 254 249 246 241 232 228
186 201 211 220 221 247 258 287 287 286 277 282 279 276 277 282 287 284 286 284 286 288 288 285 281 279 280 280 283 288 293 298 293 289 285 285 281 265 255 251 249 247 233 230
178 195 206 217 219 221 215 258 313 301 277 292 287 284 276 282 274 281 303 296 292 290 291 287 284 278 275 277 279 280 285 290 293 294 288 288 283 274 265 254 248 243 241 229
194 201 200 207 217 224 241 246 271 256 284 289 303 296 293 284 283 291 296 293 293 290 290 291 285 280 276 277 276 276 277 282 286 290 292 295 287 283 270 259 248 245 238 228
224 215 215 209 208 223 335 310 314 293 288 291 288 292 290 285 288 291 289 290 289 289 289 291 286 282 278 278 275 271 274 277 282 285 287 292 297 291 291 269 254 244 238 234
181 155 208 195 224 258 266 266 263 282 262 286 286 278 277 281 282 283 285 282 284 286 286 286 286 282 281 274 280 267 273 274 277 282 284 284 293 298 294 288 276 260 247 231
211 224 226 253 273 263 267 270 279 292 273 275 283 276 278 273 277 279 278 279 280 282 282 283 283 281 279 279 273 276 269 269 269 271 274 278 284 290 292 292 287 273 260 254
236 237 274 264 272 277 307 325 309 297 281 264 251 281 281 277 271 275 278 285 283 281 282 282 281 281 279 278 278 270 271 262 265 271 272 275 273 270 276 292 290 278 285 276
38 25 15 346 299 302 301 311 308 302 304 284 253 265 265 254 263 277 280 283 280 286 289 283 280 278 278 278 271 283 264 263 260 268 270 269 267 271 269 269 269 287 276 277